Weather History for Fort Knox, KY

Change the Weather History Date:

Wednesday, April 3, 2013

  Actual Average Record
Temperature  
Mean Temperature 38 °F -  
Max Temperature 51 °F 63 °F 85 °F (2012)
Min Temperature 27 °F 42 °F 27 °F (2013)
Degree Days  
Heating Degree Days 26    
Moisture  
Dew Point 16 °F    
Average Humidity 39    
Maximum Humidity 73    
Minimum Humidity 24    
Precipitation  
Precipitation 0.00 in - - ()
Sea Level Pressure  
Sea Level Pressure 30.31 in    
Wind  
Wind Speed 5 mph (NE)    
Max Wind Speed 13 mph    
Max Gust Speed 18 mph    
Visibility 10 miles    
Events      
Averages and records for this station are not official NWS values.
T = Trace of Precipitation, MM = Missing Value Source: NWS Daily Summary

Daily Weather History Graph

Daily Weather History Graph

Search for Another Location

Airport:

Trip Planner

Search our weather history database for the weather conditions in past years. The results will help you decide how hot, cold, wet, or windy it might be!

Date:

Astronomy

Apr. 03, 2013 Rise Set
Actual Time 7:25 AM EDT 8:08 PM EDT
Civil Twilight 6:59 AM EDT 8:35 PM EDT
Nautical Twilight 6:27 AM EDT 9:07 PM EDT
Astronomical Twilight 5:55 AM EDT 9:39 PM EDT
Moon 2:59 AM EDT (4/3) 1:26 PM EDT (4/3)
Length of Visible Light 13h 36m
Length of Day
12h 43m
Last Quarter, 45% of the Moon is Illuminated
Apr 3
Last Quarter
Apr 10
New
Apr 18
First Quarter
Apr 25
Full
May 2
Last Quarter

Hourly Weather History & Observations

Time (EDT) Temp. Windchill Dew Point Humidity Pressure Visibility Wind Dir Wind Speed Gust Speed Precip Events Conditions
12:55 AM 35.6 °F 31.7 °F 17.2 °F 47% 30.28 in 10.0 mi North 4.6 mph - N/A   Clear
1:55 AM 32.5 °F - 17.6 °F 54% 30.29 in 10.0 mi Calm Calm - N/A   Clear
2:55 AM 34.2 °F 31.2 °F 14.9 °F 45% 30.29 in 10.0 mi NNE 3.5 mph - N/A   Clear
3:55 AM 29.7 °F - 17.1 °F 59% 30.29 in 10.0 mi Calm Calm - N/A   Clear
4:55 AM 27.3 °F - 19.6 °F 73% 30.29 in 10.0 mi Calm Calm - N/A   Clear
5:55 AM 28.4 °F - 17.1 °F 63% 30.28 in 10.0 mi Calm Calm - N/A   Clear
6:55 AM 30.6 °F 25.8 °F 14.4 °F 51% 30.29 in 10.0 mi NNE 4.6 mph - N/A   Clear
7:55 AM 28.0 °F - 16.9 °F 63% 30.34 in 10.0 mi Calm Calm - N/A   Clear
8:55 AM 36.1 °F 31.4 °F 19.2 °F 50% 30.37 in 10.0 mi ENE 5.8 mph - N/A   Clear
9:55 AM 39.4 °F 32.7 °F 16.9 °F 40% 30.38 in 10.0 mi NE 10.4 mph - N/A   Clear
10:55 AM 43.5 °F 38.3 °F 16.7 °F 34% 30.38 in 10.0 mi East 9.2 mph - N/A   Clear
11:55 AM 45.7 °F 42.7 °F 16.3 °F 31% 30.37 in 10.0 mi Variable 5.8 mph - N/A   Clear
12:55 PM 47.7 °F - 15.3 °F 27% 30.36 in 10.0 mi NE 11.5 mph 17.3 mph N/A   Clear
1:55 PM 49.6 °F - 15.6 °F 26% 30.34 in 10.0 mi NE 12.7 mph 18.4 mph N/A   Clear
2:55 PM 50.2 °F - 14.9 °F 25% 30.33 in 10.0 mi NNE 11.5 mph - N/A   Clear
3:55 PM 50.7 °F - 14.5 °F 24% 30.33 in 10.0 mi NE 3.5 mph 18.4 mph N/A   Clear
4:55 PM 50.4 °F - 15.4 °F 25% 30.33 in 10.0 mi NE 9.2 mph - N/A   Clear
5:55 PM 50.4 °F - 14.5 °F 24% 30.30 in 10.0 mi ENE 10.4 mph - N/A   Clear
6:55 PM 49.5 °F - 15.4 °F 26% 30.28 in 10.0 mi NE 11.5 mph - N/A   Clear
7:55 PM 47.7 °F - 14.5 °F 27% 30.28 in 10.0 mi ENE 8.1 mph - N/A   Clear
8:55 PM 45.5 °F 43.2 °F 14.4 °F 29% 30.27 in 10.0 mi ENE 4.6 mph - N/A   Clear
9:55 PM 43.7 °F 41.1 °F 14.4 °F 31% 30.29 in 10.0 mi NE 4.6 mph - N/A   Clear
10:55 PM 43.0 °F 38.2 °F 15.8 °F 33% 30.30 in 10.0 mi ENE 8.1 mph - N/A   Mostly Cloudy
11:55 PM 42.4 °F 37.5 °F 14.9 °F 33% 30.28 in 10.0 mi ENE 8.1 mph - N/A   Partly Cloudy